Location: Newark
(9.4667°S, 159.8167°E)
Time: 04:49:27
(UTC+00:00)

Explorer 11/Cluster Stage 4 - Visible Passes

Search period start: 14 November 2019 00:00
Search period end: 24 November 2019 00:00
Orbit: 467 x 1259 km, 28.8° (Epoch: 12 November)

Date Brightness Start Highest point End Pass type
(mag) Time Alt. Az. Time Alt. Az. Time Alt. Az.
14 Nov 9.1 08:42:11 10° NW 08:44:02 11° NNW 08:46:00 10° N visible
14 Nov 8.9 17:55:58 10° NNW 18:01:03 20° NNE 18:05:32 10° ENE visible
15 Nov 8.7 17:44:28 10° NNW 17:50:24 25° NNE 17:55:35 10° E visible
16 Nov 8.5 17:34:24 14° NNW 17:39:43 30° NNE 17:45:28 10° E visible
17 Nov 8.2 17:24:27 20° NNW 17:29:00 37° NNE 17:35:13 10° E visible
18 Nov 8.0 17:14:29 27° NNW 17:18:14 44° NNE 17:24:52 10° E visible
19 Nov 9.8 15:22:21 11° ENE 15:22:21 11° ENE 15:22:36 10° ENE visible
19 Nov 7.8 17:04:29 36° NNW 17:07:26 53° NNE 17:14:25 10° ESE visible
20 Nov 9.8 15:12:18 11° ENE 15:12:18 11° ENE 15:12:39 10° ENE visible
20 Nov 7.6 16:54:27 47° NNW 16:56:37 62° NNE 17:03:55 10° ESE visible
21 Nov 9.8 15:02:13 11° E 15:02:13 11° E 15:02:29 10° E visible
21 Nov 7.4 16:44:21 60° NNW 16:45:46 72° NNE 16:53:19 10° ESE visible
21 Nov 8.1 18:27:50 10° W 18:35:14 41° SSW 18:41:38 10° SE visible
22 Nov 9.9 14:52:04 10° E 14:52:04 10° E 14:52:11 10° E visible
22 Nov 7.3 16:34:13 76° NNW 16:34:55 83° NNE 16:42:41 10° ESE visible
22 Nov 8.3 18:17:11 10° W 18:24:29 37° SSW 18:30:55 10° SE visible
23 Nov 7.3 16:24:01 86° SW 16:24:03 86° SSW 16:31:58 10° ESE visible
23 Nov 8.5 18:06:35 10° W 18:13:45 33° SSW 18:20:12 10° SE visible
